Cavalier, ND

1:20 AM CST on February 28, 2017 (GMT -0600)
Cavalier | | Change Station

Elev 892 ft 48.78 °N, 97.63 °W | Updated 5 minutes ago

Partly Cloudy
Partly Cloudy
7 °F
Feels Like -4 °F
N
6
Wind Variable Wind from NNW

Today
High -- | Low -- °F
--% Chance of Precip.
Yesterday
High -- | Low -- °F
Precip. -- in
Pressure 29.98 in
Visibility 10.0 miles
Clouds
Windchill -4 °F
Dew Point 5 °F
Humidity 92%
Rainfall 0.00 in
Snow Depth Not available.
7:13 AM 6:13 PM
Waxing Crescent, 4% visible
METAR K2C8 280715Z AUTO 34005KT 10SM M14/M15 A2998 RMK AO2
Pressure 29.98 in
Visibility 10.0 miles
Clouds
Windchill -4 °F
Dew Point 5 °F
Humidity 92%
Rainfall 0.00 in
Snow Depth Not available.
7:13 AM 6:13 PM
Waxing Crescent, 4% visible
METAR K2C8 280715Z AUTO 34005KT 10SM M14/M15 A2998 RMK AO2

Get Your Daily Forecast Email!

Thanks for signing up!

Be on the lookout for a verification email in your inbox.

You'll start receiving the daily forecast at 8 AM.

×

10-Day Weather Forecast

Almanac

Astronomy

Feb. 28, 2017 Rise Set
Actual Time
Civil Twilight
Nautical Twilight
Astronomical Twilight
Moon
Length of Visible Light
Length of Day
Tomorrow will be .
, % of the Moon is Illuminated

Today's Extremes

State Highs State Lows

Community

WunderPhotos

Upload Photos

1,962,540 photos uploaded!

WunderBlog® & News

Nearby

Air Quality

  Air Quality AQ Index Pollutant
Not available.

Snow Depth

Station Depth Elevation

Earthquake Activity

City Distance Mag. Time & Date
Minimum magnitude displayed is 2.5.

Coastal Water Temperatures

Place Temperature

Stations

Nearby Weather Stations

Station Location Temp. Windchill Dew Point Humidity Wind Precip. Elev Updated Type
                   

Watches & Warnings

There are currently no watches in effect.